contact:dominique.lefevre@mio.osupytheas.fr, maurice.libes@osupytheas.fr, didier.mallarino@osupytheas.fr
Project:EMSO http://www.emso-fr.org/EMSO-France
Depth: 2436.0 m
Title:EMSO Ligure Ouest : Data MII capteur MICROCAT
DateTime_Computer,Latitude,Longitude,Temperature,Conductivity,Pressure,DateTime_Instrument
DateTime_Computer,Latitude,Longitude,degC,S m-1,dbar,DateTime_Instrument
2023-02-02T00:02:22Z,42.805,6.029,13.3075,4.60135,2470.544,2023-2-02T02:08:54Z
2023-02-02T00:05:26Z,42.805,6.029,13.3075,4.60145,2470.567,2023-2-02T02:11:57Z
2023-02-02T00:08:29Z,42.805,6.029,13.3063,4.60160,2470.53,2023-2-02T02:15:00Z
2023-02-02T00:11:32Z,42.805,6.029,13.3061,4.60190,2470.53,2023-2-02T02:18:03Z
2023-02-02T00:14:35Z,42.805,6.029,13.3089,4.60143,2470.52,2023-2-02T02:21:06Z
2023-02-02T00:17:38Z,42.805,6.029,13.3052,4.60178,2470.544,2023-2-02T02:24:10Z
2023-02-02T00:20:41Z,42.805,6.029,13.3050,4.60144,2470.53,2023-2-02T02:27:13Z
2023-02-02T00:23:44Z,42.805,6.029,13.3036,4.60135,2470.53,2023-2-02T02:30:16Z
2023-02-02T00:26:47Z,42.805,6.029,13.3057,4.60126,2470.507,2023-2-02T02:33:19Z
2023-02-02T00:29:50Z,42.805,6.029,13.3082,4.60106,2470.567,2023-2-02T02:36:22Z
2023-02-02T00:32:53Z,42.805,6.029,13.3072,4.60132,2470.53,2023-2-02T02:39:25Z
2023-02-02T00:35:56Z,42.805,6.029,13.3070,4.60129,2470.53,2023-2-02T02:42:28Z
2023-02-02T00:38:59Z,42.805,6.029,13.3067,4.60185,2470.52,2023-2-02T02:45:31Z
2023-02-02T00:42:02Z,42.805,6.029,13.3109,4.60116,2470.553,2023-2-02T02:48:34Z
2023-02-02T00:45:06Z,42.805,6.029,13.3049,4.60131,2470.553,2023-2-02T02:51:37Z
2023-02-02T00:48:09Z,42.805,6.029,13.3071,4.60165,2470.544,2023-2-02T02:54:40Z
2023-02-02T00:51:12Z,42.805,6.029,13.3067,4.60150,2470.53,2023-2-02T02:57:43Z
2023-02-02T00:54:15Z,42.805,6.029,13.3080,4.60135,2470.53,2023-2-02T03:00:47Z
2023-02-02T00:57:18Z,42.805,6.029,13.3084,4.60143,2470.544,2023-2-02T03:03:50Z
2023-02-02T01:00:21Z,42.805,6.029,13.3076,4.60135,2470.591,2023-2-02T03:06:53Z
2023-02-02T01:03:24Z,42.805,6.029,13.3100,4.60213,2470.553,2023-2-02T03:09:56Z
2023-02-02T01:06:27Z,42.805,6.029,13.3108,4.60116,2470.591,2023-2-02T03:12:59Z
2023-02-02T01:09:30Z,42.805,6.029,13.3089,4.60157,2470.553,2023-2-02T03:16:02Z
2023-02-02T01:12:33Z,42.805,6.029,13.3079,4.60170,2470.553,2023-2-02T03:19:05Z
2023-02-02T01:15:36Z,42.805,6.029,13.3074,4.60140,2470.553,2023-2-02T03:22:08Z
2023-02-02T01:18:39Z,42.805,6.029,13.3065,4.60157,2470.577,2023-2-02T03:25:11Z
2023-02-02T01:21:43Z,42.805,6.029,13.3070,4.60144,2470.567,2023-2-02T03:28:14Z
2023-02-02T01:24:46Z,42.805,6.029,13.3056,4.60157,2470.553,2023-2-02T03:31:17Z
2023-02-02T01:27:49Z,42.805,6.029,13.3066,4.60157,2470.591,2023-2-02T03:34:20Z
2023-02-02T01:30:52Z,42.805,6.029,13.3093,4.60175,2470.563,2023-2-02T03:37:24Z
2023-02-02T01:33:55Z,42.805,6.029,13.3071,4.60119,2470.553,2023-2-02T03:40:27Z
2023-02-02T01:36:58Z,42.805,6.029,13.3072,4.60150,2470.591,2023-2-02T03:43:30Z
2023-02-02T01:40:01Z,42.805,6.029,13.3078,4.60160,2470.567,2023-2-02T03:46:33Z
2023-02-02T01:43:04Z,42.805,6.029,13.3087,4.60148,2470.553,2023-2-02T03:49:36Z
2023-02-02T01:46:07Z,42.805,6.029,13.3107,4.60147,2470.553,2023-2-02T03:52:39Z
2023-02-02T01:49:10Z,42.805,6.029,13.3082,4.60140,2470.591,2023-2-02T03:55:42Z
2023-02-02T01:52:13Z,42.805,6.029,13.3058,4.60137,2470.577,2023-2-02T03:58:45Z
2023-02-02T01:55:16Z,42.805,6.029,13.3076,4.60137,2470.614,2023-2-02T04:01:48Z
2023-02-02T01:58:19Z,42.805,6.029,13.3061,4.60159,2470.614,2023-2-02T04:04:51Z
2023-02-02T02:01:23Z,42.805,6.029,13.3088,4.60089,2470.591,2023-2-02T04:07:54Z
2023-02-02T02:04:26Z,42.805,6.029,13.3036,4.60127,2470.577,2023-2-02T04:10:57Z
2023-02-02T02:07:29Z,42.805,6.029,13.3048,4.60127,2470.614,2023-2-02T04:14:01Z
2023-02-02T02:10:32Z,42.805,6.029,13.3061,4.60127,2470.577,2023-2-02T04:17:04Z
2023-02-02T02:13:35Z,42.805,6.029,13.3059,4.60129,2470.624,2023-2-02T04:20:07Z
2023-02-02T02:16:38Z,42.805,6.029,13.3061,4.60150,2470.624,2023-2-02T04:23:10Z
2023-02-02T02:19:41Z,42.805,6.029,13.3067,4.60147,2470.6,2023-2-02T04:26:13Z
2023-02-02T02:22:44Z,42.805,6.029,13.3075,4.60156,2470.637,2023-2-02T04:29:16Z
2023-02-02T02:25:47Z,42.805,6.029,13.3070,4.60132,2470.624,2023-2-02T04:32:19Z
2023-02-02T02:28:50Z,42.805,6.029,13.3070,4.60098,2470.637,2023-2-02T04:35:22Z
2023-02-02T02:31:53Z,42.805,6.029,13.3059,4.60107,2470.624,2023-2-02T04:38:25Z
2023-02-02T02:34:56Z,42.805,6.029,13.3076,4.60150,2470.646,2023-2-02T04:41:28Z
2023-02-02T02:38:00Z,42.805,6.029,13.3063,4.60104,2470.624,2023-2-02T04:44:31Z
2023-02-02T02:41:03Z,42.805,6.029,13.3058,4.60125,2470.637,2023-2-02T04:47:34Z
2023-02-02T02:44:06Z,42.805,6.029,13.3049,4.60114,2470.624,2023-2-02T04:50:37Z
2023-02-02T02:47:09Z,42.805,6.029,13.3060,4.60127,2470.651,2023-2-02T04:53:41Z
2023-02-02T02:50:12Z,42.805,6.029,13.3051,4.60156,2470.6,2023-2-02T04:56:44Z
2023-02-02T02:53:15Z,42.805,6.029,13.3048,4.60110,2470.646,2023-2-02T04:59:47Z
2023-02-02T02:56:18Z,42.805,6.029,13.3060,4.60086,2470.637,2023-2-02T05:02:50Z
2023-02-02T02:59:21Z,42.805,6.029,13.3050,4.60088,2470.624,2023-2-02T05:05:53Z
2023-02-02T03:02:24Z,42.805,6.029,13.3055,4.60104,2470.624,2023-2-02T05:08:56Z
2023-02-02T03:05:27Z,42.805,6.029,13.3059,4.60104,2470.646,2023-2-02T05:11:59Z
2023-02-02T03:08:30Z,42.805,6.029,13.3038,4.60105,2470.637,2023-2-02T05:15:02Z
2023-02-02T03:11:33Z,42.805,6.029,13.3041,4.60093,2470.646,2023-2-02T05:18:05Z
2023-02-02T03:14:36Z,42.805,6.029,13.3046,4.60126,2470.661,2023-2-02T05:21:08Z
2023-02-02T03:17:40Z,42.805,6.029,13.3073,4.60120,2470.624,2023-2-02T05:24:11Z
2023-02-02T03:20:43Z,42.805,6.029,13.3050,4.60104,2470.661,2023-2-02T05:27:14Z
2023-02-02T03:23:46Z,42.805,6.029,13.3048,4.60126,2470.646,2023-2-02T05:30:18Z
2023-02-02T03:26:49Z,42.805,6.029,13.3051,4.60113,2470.661,2023-2-02T05:33:21Z
2023-02-02T03:29:52Z,42.805,6.029,13.3050,4.60106,2470.661,2023-2-02T05:36:24Z
2023-02-02T03:32:55Z,42.805,6.029,13.3047,4.60135,2470.684,2023-2-02T05:39:27Z
2023-02-02T03:35:58Z,42.805,6.029,13.3048,4.60122,2470.67,2023-2-02T05:42:30Z
2023-02-02T03:39:01Z,42.805,6.029,13.3053,4.60099,2470.684,2023-2-02T05:45:33Z
2023-02-02T03:42:04Z,42.805,6.029,13.3059,4.60139,2470.67,2023-2-02T05:48:36Z
2023-02-02T03:45:07Z,42.805,6.029,13.3067,4.60112,2470.693,2023-2-02T05:51:39Z
2023-02-02T03:48:10Z,42.805,6.029,13.3039,4.60112,2470.693,2023-2-02T05:54:42Z
2023-02-02T03:51:13Z,42.805,6.029,13.3056,4.60111,2470.684,2023-2-02T05:57:45Z
2023-02-02T03:54:16Z,42.805,6.029,13.3056,4.60125,2470.67,2023-2-02T06:00:48Z
2023-02-02T03:57:20Z,42.805,6.029,13.3047,4.60123,2470.693,2023-2-02T06:03:51Z
2023-02-02T04:00:23Z,42.805,6.029,13.3065,4.60121,2470.684,2023-2-02T06:06:55Z
2023-02-02T04:03:26Z,42.805,6.029,13.3034,4.60129,2470.693,2023-2-02T06:09:58Z
2023-02-02T04:06:29Z,42.805,6.029,13.3076,4.60112,2470.73,2023-2-02T06:13:01Z
2023-02-02T04:09:32Z,42.805,6.029,13.3049,4.60123,2470.707,2023-2-02T06:16:04Z
2023-02-02T04:12:35Z,42.805,6.029,13.3075,4.60134,2470.707,2023-2-02T06:19:07Z
2023-02-02T04:15:38Z,42.805,6.029,13.3078,4.60103,2470.693,2023-2-02T06:22:10Z
2023-02-02T04:18:41Z,42.805,6.029,13.3079,4.60099,2470.684,2023-2-02T06:25:13Z
2023-02-02T04:21:44Z,42.805,6.029,13.3085,4.60122,2470.717,2023-2-02T06:28:16Z
2023-02-02T04:24:47Z,42.805,6.029,13.3090,4.60094,2470.717,2023-2-02T06:31:19Z
2023-02-02T04:27:50Z,42.805,6.029,13.3070,4.60122,2470.684,2023-2-02T06:34:22Z
2023-02-02T04:30:53Z,42.805,6.029,13.3075,4.60116,2470.707,2023-2-02T06:37:25Z
2023-02-02T04:33:57Z,42.805,6.029,13.3070,4.60136,2470.73,2023-2-02T06:40:28Z
2023-02-02T04:37:00Z,42.805,6.029,13.3079,4.60131,2470.707,2023-2-02T06:43:31Z
2023-02-02T04:40:03Z,42.805,6.029,13.3067,4.60116,2470.693,2023-2-02T06:46:35Z
2023-02-02T04:43:06Z,42.805,6.029,13.3050,4.60123,2470.707,2023-2-02T06:49:38Z
2023-02-02T04:46:09Z,42.805,6.029,13.3066,4.60146,2470.717,2023-2-02T06:52:41Z
2023-02-02T04:49:12Z,42.805,6.029,13.3060,4.60109,2470.693,2023-2-02T06:55:44Z
2023-02-02T04:52:15Z,42.805,6.029,13.3081,4.60116,2470.707,2023-2-02T06:58:47Z
2023-02-02T04:55:18Z,42.805,6.029,13.3066,4.60110,2470.707,2023-2-02T07:01:50Z
2023-02-02T04:58:21Z,42.805,6.029,13.3063,4.60107,2470.67,2023-2-02T07:04:53Z
2023-02-02T05:01:24Z,42.805,6.029,13.3082,4.60110,2470.73,2023-2-02T07:07:56Z
2023-02-02T05:04:27Z,42.805,6.029,13.3104,4.60130,2470.684,2023-2-02T07:10:59Z
2023-02-02T05:07:30Z,42.805,6.029,13.3111,4.60101,2470.693,2023-2-02T07:14:02Z
2023-02-02T05:10:33Z,42.805,6.029,13.3068,4.60118,2470.707,2023-2-02T07:17:05Z
2023-02-02T05:13:37Z,42.805,6.029,13.3063,4.60162,2470.707,2023-2-02T07:20:08Z
2023-02-02T05:16:40Z,42.805,6.029,13.3080,4.60102,2470.754,2023-2-02T07:23:12Z
2023-02-02T05:19:43Z,42.805,6.029,13.3085,4.60121,2470.754,2023-2-02T07:26:15Z
2023-02-02T05:22:46Z,42.805,6.029,13.3073,4.60093,2470.73,2023-2-02T07:29:18Z
2023-02-02T05:25:49Z,42.805,6.029,13.3089,4.60141,2470.693,2023-2-02T07:32:21Z
2023-02-02T05:28:52Z,42.805,6.029,13.3090,4.60117,2470.67,2023-2-02T07:35:24Z
2023-02-02T05:31:55Z,42.805,6.029,13.3057,4.60099,2470.693,2023-2-02T07:38:27Z
2023-02-02T05:34:58Z,42.805,6.029,13.3051,4.60096,2470.73,2023-2-02T07:41:30Z
2023-02-02T05:38:01Z,42.805,6.029,13.3057,4.60106,2470.73,2023-2-02T07:44:33Z
2023-02-02T05:41:04Z,42.805,6.029,13.3043,4.60148,2470.707,2023-2-02T07:47:36Z
2023-02-02T05:44:07Z,42.805,6.029,13.3051,4.60172,2470.717,2023-2-02T07:50:39Z
2023-02-02T05:47:10Z,42.805,6.029,13.3083,4.60125,2470.73,2023-2-02T07:53:42Z
2023-02-02T05:50:14Z,42.805,6.029,13.3076,4.60142,2470.717,2023-2-02T07:56:45Z
2023-02-02T05:53:17Z,42.805,6.029,13.3052,4.60144,2470.707,2023-2-02T07:59:49Z
2023-02-02T05:56:20Z,42.805,6.029,13.3041,4.60194,2470.717,2023-2-02T08:02:52Z
2023-02-02T05:59:23Z,42.805,6.029,13.3050,4.60125,2470.717,2023-2-02T08:05:55Z
2023-02-02T06:02:26Z,42.805,6.029,13.3049,4.60135,2470.67,2023-2-02T08:08:58Z
2023-02-02T06:05:29Z,42.805,6.029,13.3052,4.60175,2470.707,2023-2-02T08:12:01Z
2023-02-02T06:08:32Z,42.805,6.029,13.3050,4.60141,2470.693,2023-2-02T08:15:04Z
2023-02-02T06:11:35Z,42.805,6.029,13.3085,4.60129,2470.67,2023-2-02T08:18:07Z
2023-02-02T06:14:38Z,42.805,6.029,13.3061,4.60144,2470.693,2023-2-02T08:21:10Z
2023-02-02T06:17:41Z,42.805,6.029,13.3046,4.60124,2470.707,2023-2-02T08:24:13Z
2023-02-02T06:20:44Z,42.805,6.029,13.3052,4.60140,2470.717,2023-2-02T08:27:16Z
2023-02-02T06:23:47Z,42.805,6.029,13.3058,4.60136,2470.717,2023-2-02T08:30:19Z
2023-02-02T06:26:50Z,42.805,6.029,13.3047,4.60137,2470.693,2023-2-02T08:33:22Z
2023-02-02T06:29:54Z,42.805,6.029,13.3047,4.60111,2470.707,2023-2-02T08:36:25Z
2023-02-02T06:32:57Z,42.805,6.029,13.3038,4.60181,2470.74,2023-2-02T08:39:29Z
2023-02-02T06:36:00Z,42.805,6.029,13.3042,4.60125,2470.717,2023-2-02T08:42:32Z
2023-02-02T06:39:03Z,42.805,6.029,13.3039,4.60162,2470.707,2023-2-02T08:45:35Z
2023-02-02T06:42:06Z,42.805,6.029,13.3045,4.60185,2470.74,2023-2-02T08:48:38Z
2023-02-02T06:45:09Z,42.805,6.029,13.3036,4.60137,2470.717,2023-2-02T08:51:41Z
2023-02-02T06:48:12Z,42.805,6.029,13.3043,4.60168,2470.73,2023-2-02T08:54:44Z
2023-02-02T06:51:15Z,42.805,6.029,13.3049,4.60182,2470.754,2023-2-02T08:57:47Z
2023-02-02T06:54:18Z,42.805,6.029,13.3057,4.60180,2470.717,2023-2-02T09:00:50Z
2023-02-02T06:57:21Z,42.805,6.029,13.3040,4.60137,2470.717,2023-2-02T09:03:53Z
2023-02-02T07:00:24Z,42.805,6.029,13.3061,4.60137,2470.707,2023-2-02T09:06:56Z
2023-02-02T07:03:27Z,42.805,6.029,13.3044,4.60178,2470.707,2023-2-02T09:09:59Z
2023-02-02T07:06:31Z,42.805,6.029,13.3044,4.60155,2470.73,2023-2-02T09:13:02Z
2023-02-02T07:09:34Z,42.805,6.029,13.3041,4.60149,2470.717,2023-2-02T09:16:06Z
2023-02-02T07:12:37Z,42.805,6.029,13.3041,4.60182,2470.707,2023-2-02T09:19:09Z
2023-02-02T07:15:40Z,42.805,6.029,13.3046,4.60173,2470.754,2023-2-02T09:22:12Z
2023-02-02T07:18:43Z,42.805,6.029,13.3061,4.60132,2470.717,2023-2-02T09:25:15Z
2023-02-02T07:21:46Z,42.805,6.029,13.3040,4.60143,2470.693,2023-2-02T09:28:18Z
2023-02-02T07:24:49Z,42.805,6.029,13.3052,4.60148,2470.717,2023-2-02T09:31:21Z
2023-02-02T07:27:52Z,42.805,6.029,13.3053,4.60158,2470.73,2023-2-02T09:34:24Z
2023-02-02T07:30:55Z,42.805,6.029,13.3055,4.60170,2470.707,2023-2-02T09:37:27Z
2023-02-02T07:33:58Z,42.805,6.029,13.3036,4.60155,2470.73,2023-2-02T09:40:30Z
2023-02-02T07:37:01Z,42.805,6.029,13.3049,4.60178,2470.707,2023-2-02T09:43:33Z
2023-02-02T07:40:04Z,42.805,6.029,13.3037,4.60198,2470.717,2023-2-02T09:46:36Z
2023-02-02T07:43:07Z,42.805,6.029,13.3048,4.60169,2470.693,2023-2-02T09:49:39Z
2023-02-02T07:46:11Z,42.805,6.029,13.3049,4.60152,2470.67,2023-2-02T09:52:43Z
2023-02-02T07:49:14Z,42.805,6.029,13.3041,4.60169,2470.707,2023-2-02T09:55:46Z
2023-02-02T07:52:17Z,42.805,6.029,13.3047,4.60167,2470.693,2023-2-02T09:58:49Z
2023-02-02T07:55:20Z,42.805,6.029,13.3049,4.60167,2470.707,2023-2-02T10:01:52Z
2023-02-02T07:58:23Z,42.805,6.029,13.3049,4.60161,2470.693,2023-2-02T10:04:55Z
2023-02-02T08:01:26Z,42.805,6.029,13.3046,4.60122,2470.707,2023-2-02T10:07:58Z
2023-02-02T08:04:29Z,42.805,6.029,13.3039,4.60135,2470.684,2023-2-02T10:11:01Z
2023-02-02T08:07:32Z,42.805,6.029,13.3036,4.60132,2470.707,2023-2-02T10:14:04Z
2023-02-02T08:10:35Z,42.805,6.029,13.3039,4.60190,2470.717,2023-2-02T10:17:07Z
2023-02-02T08:13:38Z,42.805,6.029,13.3037,4.60152,2470.73,2023-2-02T10:20:10Z
2023-02-02T08:16:41Z,42.805,6.029,13.3054,4.60181,2470.717,2023-2-02T10:23:13Z
2023-02-02T08:19:45Z,42.805,6.029,13.3029,4.60198,2470.693,2023-2-02T10:26:17Z
2023-02-02T08:22:48Z,42.805,6.029,13.3058,4.60178,2470.693,2023-2-02T10:29:20Z
2023-02-02T08:25:51Z,42.805,6.029,13.3044,4.60147,2470.707,2023-2-02T10:32:23Z
2023-02-02T08:28:54Z,42.805,6.029,13.3059,4.60172,2470.684,2023-2-02T10:35:26Z
2023-02-02T08:31:57Z,42.805,6.029,13.3052,4.60185,2470.707,2023-2-02T10:38:29Z
2023-02-02T08:35:00Z,42.805,6.029,13.3058,4.60144,2470.646,2023-2-02T10:41:32Z
2023-02-02T08:38:03Z,42.805,6.029,13.3043,4.60161,2470.707,2023-2-02T10:44:35Z
2023-02-02T08:41:06Z,42.805,6.029,13.3048,4.60155,2470.707,2023-2-02T10:47:38Z
2023-02-02T08:44:09Z,42.805,6.029,13.3052,4.60169,2470.707,2023-2-02T10:50:41Z
2023-02-02T08:47:12Z,42.805,6.029,13.3041,4.60150,2470.717,2023-2-02T10:53:44Z
2023-02-02T08:50:15Z,42.805,6.029,13.3041,4.60135,2470.67,2023-2-02T10:56:47Z
2023-02-02T08:53:18Z,42.805,6.029,13.3036,4.60152,2470.707,2023-2-02T10:59:50Z
2023-02-02T08:56:22Z,42.805,6.029,13.3059,4.60137,2470.67,2023-2-02T11:02:54Z
2023-02-02T08:59:25Z,42.805,6.029,13.3046,4.60122,2470.693,2023-2-02T11:05:57Z
2023-02-02T09:02:28Z,42.805,6.029,13.3035,4.60137,2470.693,2023-2-02T11:09:00Z
2023-02-02T09:05:31Z,42.805,6.029,13.3049,4.60167,2470.684,2023-2-02T11:12:03Z
2023-02-02T09:08:34Z,42.805,6.029,13.3037,4.60150,2470.707,2023-2-02T11:15:06Z
2023-02-02T09:11:37Z,42.805,6.029,13.3053,4.60163,2470.67,2023-2-02T11:18:09Z
2023-02-02T09:14:40Z,42.805,6.029,13.3041,4.60151,2470.684,2023-2-02T11:21:12Z
2023-02-02T09:17:43Z,42.805,6.029,13.3036,4.60170,2470.693,2023-2-02T11:24:15Z
2023-02-02T09:20:46Z,42.805,6.029,13.3037,4.60176,2470.693,2023-2-02T11:27:18Z
2023-02-02T09:23:49Z,42.805,6.029,13.3037,4.60139,2470.693,2023-2-02T11:30:21Z
2023-02-02T09:26:52Z,42.805,6.029,13.3043,4.60125,2470.693,2023-2-02T11:33:24Z
2023-02-02T09:29:55Z,42.805,6.029,13.3042,4.60160,2470.67,2023-2-02T11:36:28Z
2023-02-02T09:32:59Z,42.805,6.029,13.3042,4.60150,2470.707,2023-2-02T11:39:31Z
2023-02-02T09:36:02Z,42.805,6.029,13.3044,4.60122,2470.684,2023-2-02T11:42:34Z
2023-02-02T09:39:05Z,42.805,6.029,13.3046,4.60149,2470.67,2023-2-02T11:45:37Z
2023-02-02T09:42:08Z,42.805,6.029,13.3047,4.60110,2470.684,2023-2-02T11:48:40Z
2023-02-02T09:45:11Z,42.805,6.029,13.3034,4.60135,2470.661,2023-2-02T11:51:43Z
2023-02-02T09:48:14Z,42.805,6.029,13.3049,4.60161,2470.693,2023-2-02T11:54:46Z
2023-02-02T09:51:17Z,42.805,6.029,13.3040,4.60140,2470.646,2023-2-02T11:57:49Z
2023-02-02T09:54:20Z,42.805,6.029,13.3043,4.60164,2470.646,2023-2-02T12:00:52Z
2023-02-02T09:57:23Z,42.805,6.029,13.3036,4.60149,2470.624,2023-2-02T12:03:55Z
2023-02-02T10:00:26Z,42.805,6.029,13.3036,4.60136,2470.67,2023-2-02T12:06:58Z
2023-02-02T10:03:29Z,42.805,6.029,13.3061,4.60131,2470.67,2023-2-02T12:10:01Z
2023-02-02T10:06:32Z,42.805,6.029,13.3034,4.60138,2470.693,2023-2-02T12:13:05Z
2023-02-02T10:09:36Z,42.805,6.029,13.3038,4.60143,2470.67,2023-2-02T12:16:08Z
2023-02-02T10:12:39Z,42.805,6.029,13.3039,4.60157,2470.661,2023-2-02T12:19:11Z
2023-02-02T10:15:42Z,42.805,6.029,13.3057,4.60170,2470.661,2023-2-02T12:22:14Z
2023-02-02T10:18:45Z,42.805,6.029,13.3037,4.60154,2470.646,2023-2-02T12:25:17Z
2023-02-02T10:21:48Z,42.805,6.029,13.3038,4.60150,2470.637,2023-2-02T12:28:20Z
2023-02-02T10:24:51Z,42.805,6.029,13.3053,4.60157,2470.646,2023-2-02T12:31:23Z
2023-02-02T10:27:54Z,42.805,6.029,13.3034,4.60136,2470.661,2023-2-02T12:34:26Z
2023-02-02T10:30:57Z,42.805,6.029,13.3042,4.60150,2470.67,2023-2-02T12:37:29Z
2023-02-02T10:34:00Z,42.805,6.029,13.3034,4.60133,2470.646,2023-2-02T12:40:32Z
2023-02-02T10:37:03Z,42.805,6.029,13.3053,4.60150,2470.67,2023-2-02T12:43:35Z
2023-02-02T10:40:06Z,42.805,6.029,13.3034,4.60140,2470.614,2023-2-02T12:46:38Z
2023-02-02T10:43:10Z,42.805,6.029,13.3041,4.60142,2470.624,2023-2-02T12:49:42Z
2023-02-02T10:46:13Z,42.805,6.029,13.3041,4.60156,2470.637,2023-2-02T12:52:45Z
2023-02-02T10:49:16Z,42.805,6.029,13.3058,4.60160,2470.624,2023-2-02T12:55:48Z
2023-02-02T10:52:19Z,42.805,6.029,13.3035,4.60184,2470.67,2023-2-02T12:58:51Z
2023-02-02T10:55:22Z,42.805,6.029,13.3061,4.60161,2470.624,2023-2-02T13:01:54Z
2023-02-02T10:58:25Z,42.805,6.029,13.3046,4.60160,2470.637,2023-2-02T13:04:57Z
2023-02-02T11:01:28Z,42.805,6.029,13.3045,4.60152,2470.6,2023-2-02T13:08:00Z
2023-02-02T11:04:31Z,42.805,6.029,13.3039,4.60144,2470.624,2023-2-02T13:11:03Z
2023-02-02T11:07:34Z,42.805,6.029,13.3038,4.60158,2470.646,2023-2-02T13:14:06Z
2023-02-02T11:10:37Z,42.805,6.029,13.3049,4.60128,2470.624,2023-2-02T13:17:09Z
2023-02-02T11:13:40Z,42.805,6.029,13.3061,4.60150,2470.624,2023-2-02T13:20:12Z
2023-02-02T11:16:43Z,42.805,6.029,13.3044,4.60144,2470.646,2023-2-02T13:23:15Z
2023-02-02T11:19:46Z,42.805,6.029,13.3042,4.60140,2470.6,2023-2-02T13:26:19Z
2023-02-02T11:22:50Z,42.805,6.029,13.3047,4.60156,2470.6,2023-2-02T13:29:22Z
2023-02-02T11:25:53Z,42.805,6.029,13.3055,4.60149,2470.637,2023-2-02T13:32:25Z
2023-02-02T11:28:56Z,42.805,6.029,13.3053,4.60152,2470.637,2023-2-02T13:35:28Z
2023-02-02T11:31:59Z,42.805,6.029,13.3051,4.60147,2470.661,2023-2-02T13:38:31Z
2023-02-02T11:35:02Z,42.805,6.029,13.3047,4.60139,2470.6,2023-2-02T13:41:34Z
2023-02-02T11:38:05Z,42.805,6.029,13.3046,4.60167,2470.624,2023-2-02T13:44:37Z
2023-02-02T11:41:08Z,42.805,6.029,13.3054,4.60152,2470.6,2023-2-02T13:47:40Z
2023-02-02T11:44:11Z,42.805,6.029,13.3048,4.60152,2470.624,2023-2-02T13:50:43Z
2023-02-02T11:47:14Z,42.805,6.029,13.3035,4.60149,2470.6,2023-2-02T13:53:46Z
2023-02-02T11:50:17Z,42.805,6.029,13.3032,4.60140,2470.577,2023-2-02T13:56:49Z
2023-02-02T11:53:20Z,42.805,6.029,13.3031,4.60119,2470.614,2023-2-02T13:59:53Z
2023-02-02T11:56:24Z,42.805,6.029,13.3036,4.60114,2470.614,2023-2-02T14:02:56Z
2023-02-02T11:59:27Z,42.805,6.029,13.3031,4.60130,2470.624,2023-2-02T14:05:59Z
2023-02-02T12:02:30Z,42.805,6.029,13.3036,4.60144,2470.6,2023-2-02T14:09:02Z
2023-02-02T12:05:33Z,42.805,6.029,13.3034,4.60133,2470.6,2023-2-02T14:12:05Z
2023-02-02T12:08:36Z,42.805,6.029,13.3031,4.60117,2470.567,2023-2-02T14:15:08Z
2023-02-02T12:11:39Z,42.805,6.029,13.3035,4.60110,2470.6,2023-2-02T14:18:11Z
2023-02-02T12:14:42Z,42.805,6.029,13.3041,4.60114,2470.577,2023-2-02T14:21:14Z
2023-02-02T12:17:45Z,42.805,6.029,13.3031,4.60131,2470.577,2023-2-02T14:24:17Z
2023-02-02T12:20:48Z,42.805,6.029,13.3034,4.60148,2470.591,2023-2-02T14:27:20Z
2023-02-02T12:23:51Z,42.805,6.029,13.3034,4.60142,2470.6,2023-2-02T14:30:23Z
2023-02-02T12:26:54Z,42.805,6.029,13.3027,4.60147,2470.577,2023-2-02T14:33:26Z
2023-02-02T12:29:57Z,42.805,6.029,13.3034,4.60115,2470.591,2023-2-02T14:36:30Z
2023-02-02T12:33:01Z,42.805,6.029,13.3034,4.60139,2470.614,2023-2-02T14:39:33Z
2023-02-02T12:36:04Z,42.805,6.029,13.3034,4.60190,2470.614,2023-2-02T14:42:36Z
2023-02-02T12:39:07Z,42.805,6.029,13.3051,4.60146,2470.6,2023-2-02T14:45:39Z
2023-02-02T12:42:10Z,42.805,6.029,13.3039,4.60161,2470.577,2023-2-02T14:48:42Z
2023-02-02T12:45:13Z,42.805,6.029,13.3045,4.60140,2470.577,2023-2-02T14:51:45Z
2023-02-02T12:48:16Z,42.805,6.029,13.3056,4.60137,2470.6,2023-2-02T14:54:48Z
2023-02-02T12:51:19Z,42.805,6.029,13.3046,4.60119,2470.577,2023-2-02T14:57:51Z
2023-02-02T12:54:22Z,42.805,6.029,13.3032,4.60140,2470.6,2023-2-02T15:00:54Z
2023-02-02T12:57:25Z,42.805,6.029,13.3040,4.60146,2470.614,2023-2-02T15:03:57Z
2023-02-02T13:00:28Z,42.805,6.029,13.3040,4.60133,2470.614,2023-2-02T15:07:00Z
2023-02-02T13:03:31Z,42.805,6.029,13.3048,4.60125,2470.577,2023-2-02T15:10:04Z
2023-02-02T13:06:34Z,42.805,6.029,13.3061,4.60142,2470.591,2023-2-02T15:13:07Z
2023-02-02T13:09:38Z,42.805,6.029,13.3038,4.60133,2470.591,2023-2-02T15:16:10Z
2023-02-02T13:12:41Z,42.805,6.029,13.3034,4.60123,2470.614,2023-2-02T15:19:13Z
2023-02-02T13:15:44Z,42.805,6.029,13.3037,4.60163,2470.6,2023-2-02T15:22:16Z
2023-02-02T13:18:47Z,42.805,6.029,13.3044,4.60148,2470.6,2023-2-02T15:25:19Z
2023-02-02T13:21:50Z,42.805,6.029,13.3036,4.60122,2470.614,2023-2-02T15:28:22Z
2023-02-02T13:24:53Z,42.805,6.029,13.3044,4.60155,2470.567,2023-2-02T15:31:25Z
2023-02-02T13:27:56Z,42.805,6.029,13.3059,4.60155,2470.614,2023-2-02T15:34:28Z
2023-02-02T13:30:59Z,42.805,6.029,13.3061,4.60201,2470.577,2023-2-02T15:37:31Z
2023-02-02T13:34:02Z,42.805,6.029,13.3054,4.60123,2470.624,2023-2-02T15:40:34Z
2023-02-02T13:37:05Z,42.805,6.029,13.3044,4.60115,2470.624,2023-2-02T15:43:38Z
2023-02-02T13:40:08Z,42.805,6.029,13.3033,4.60121,2470.6,2023-2-02T15:46:41Z
2023-02-02T13:43:11Z,42.805,6.029,13.3039,4.60172,2470.591,2023-2-02T15:49:44Z
2023-02-02T13:46:15Z,42.805,6.029,13.3035,4.60142,2470.637,2023-2-02T15:52:47Z
2023-02-02T13:49:18Z,42.805,6.029,13.3035,4.60175,2470.553,2023-2-02T15:55:50Z
2023-02-02T13:52:21Z,42.805,6.029,13.3040,4.60170,2470.6,2023-2-02T15:58:53Z
2023-02-02T13:55:24Z,42.805,6.029,13.3046,4.60140,2470.6,2023-2-02T16:01:56Z
2023-02-02T13:58:27Z,42.805,6.029,13.3053,4.60120,2470.553,2023-2-02T16:04:59Z
2023-02-02T14:01:30Z,42.805,6.029,13.3054,4.60122,2470.614,2023-2-02T16:08:02Z
2023-02-02T14:04:33Z,42.805,6.029,13.3051,4.60108,2470.661,2023-2-02T16:11:05Z
2023-02-02T14:07:36Z,42.805,6.029,13.3039,4.60144,2470.6,2023-2-02T16:14:08Z
2023-02-02T14:10:39Z,42.805,6.029,13.3039,4.60147,2470.6,2023-2-02T16:17:11Z
2023-02-02T14:13:42Z,42.805,6.029,13.3056,4.60142,2470.637,2023-2-02T16:20:15Z
2023-02-02T14:16:45Z,42.805,6.029,13.3058,4.60145,2470.6,2023-2-02T16:23:18Z
2023-02-02T14:19:49Z,42.805,6.029,13.3037,4.60125,2470.637,2023-2-02T16:26:21Z
2023-02-02T14:22:52Z,42.805,6.029,13.3034,4.60136,2470.6,2023-2-02T16:29:24Z
2023-02-02T14:25:55Z,42.805,6.029,13.3035,4.60140,2470.637,2023-2-02T16:32:27Z
2023-02-02T14:28:58Z,42.805,6.029,13.3061,4.60104,2470.637,2023-2-02T16:35:30Z
2023-02-02T14:32:01Z,42.805,6.029,13.3049,4.60137,2470.577,2023-2-02T16:38:33Z
2023-02-02T14:35:04Z,42.805,6.029,13.3044,4.60152,2470.637,2023-2-02T16:41:36Z
2023-02-02T14:38:07Z,42.805,6.029,13.3049,4.60120,2470.624,2023-2-02T16:44:39Z
2023-02-02T14:41:10Z,42.805,6.029,13.3039,4.60118,2470.646,2023-2-02T16:47:42Z
2023-02-02T14:44:13Z,42.805,6.029,13.3046,4.60137,2470.637,2023-2-02T16:50:45Z
2023-02-02T14:47:16Z,42.805,6.029,13.3043,4.60123,2470.624,2023-2-02T16:53:49Z
2023-02-02T14:50:19Z,42.805,6.029,13.3034,4.60129,2470.637,2023-2-02T16:56:52Z
2023-02-02T14:53:22Z,42.805,6.029,13.3042,4.60119,2470.637,2023-2-02T16:59:55Z
2023-02-02T14:56:26Z,42.805,6.029,13.3046,4.60137,2470.6,2023-2-02T17:02:58Z
2023-02-02T14:59:29Z,42.805,6.029,13.3046,4.60122,2470.624,2023-2-02T17:06:01Z
2023-02-02T15:02:32Z,42.805,6.029,13.3040,4.60152,2470.637,2023-2-02T17:09:04Z
2023-02-02T15:05:35Z,42.805,6.029,13.3035,4.60132,2470.624,2023-2-02T17:12:07Z
2023-02-02T15:08:38Z,42.805,6.029,13.3041,4.60174,2470.661,2023-2-02T17:15:10Z
2023-02-02T15:11:41Z,42.805,6.029,13.3054,4.60117,2470.624,2023-2-02T17:18:13Z
2023-02-02T15:14:44Z,42.805,6.029,13.3036,4.60132,2470.637,2023-2-02T17:21:16Z